Regional Weather Roundup
Issued by NWS Huntsville, AL

Home | Current Version | Previous Version | Text Only | Print | Product List | Glossary On
Versions: 1 2 3 4 5 6 7 8 9 10 11 12 13 14 15 16 17 18 19 20 21 22 23 24 25 26 27 28 29 30 31 32 33 34 35 36 37 38 39 40 41 42 43 44 45 46 47 48 49 50
000
ASUS44 KHUN 030110
RWRHUN

WEATHER ROUNDUP FOR THE TENNESSEE VALLEY
NATIONAL WEATHER SERVICE HUNTSVILLE AL
700 PM CST MON MAR 02 2015

ALZ001>004-030200-
NORTHWEST ALABAMA

CITY           SKY/WX    TMP DP  RH WIND       PRES   REMARKS
COURTLAND HCN    N/A     43 N/A N/A CALM        N/A
RUSSELLVILLE     N/A     43 N/A N/A MISG        N/A
SHOALS AIRPORT CLOUDY    45  39  79 E3        30.31F
SHOALS TVA RES   N/A     45 N/A N/A MISG        N/A
$$

ALZ005>007-016-030200-
NORTH CENTRAL ALABAMA

CITY           SKY/WX    TMP DP  RH WIND       PRES   REMARKS
CULLMAN AG STN   N/A     46 N/A N/A CALM        N/A
DECATUR AP     LGT RAIN  45  42  89 N5        30.31R
HUNTSVILLE AP  CLOUDY    47  42  83 N5        30.29S
HUN NWS/UAH      N/A     46  40  80 VRB5        N/A
MERIDIANVILLE  CLOUDY    45  37  76 N8        30.30R
REDSTONE ARSN  CLOUDY    46  43  91 N6        30.29R
VINEMONT AP    CLOUDY    44  42  91 CALM      30.30S
$$

ALZ008>010-030200-
NORTHEAST ALABAMA

CITY           SKY/WX    TMP DP  RH WIND       PRES   REMARKS
ALBERTVILLE    CLOUDY    46  46 100 CALM      30.26S
FORT PAYNE     CLOUDY    50  43  76 CALM      30.28R
SCOTTSBORO AP  CLOUDY    50  46  87 CALM      30.30R
SCOTTSBORO HCN   N/A     50 N/A N/A MISG        N/A
VALLEY HEAD      N/A     50 N/A N/A MISG        N/A
$$

TNZ076-096-097-030200-
SOUTHEASTERN MIDDLE TENNESSEE

CITY           SKY/WX    TMP DP  RH WIND       PRES   REMARKS
TULLAHOMA      CLOUDY    41  34  75 E3        30.30F
WINCHESTER     CLOUDY    43  37  81 N3        30.30S
$$

...SURROUNDING SITES...

CITY           SKY/WX    TMP DP  RH WIND       PRES   REMARKS
ATLANTA        CLOUDY    54  50  86 CALM      30.26S
ANNISTON       CLOUDY    53  50  89 E5        30.27F
BIRMINGHAM     CLOUDY    50  49  96 CALM      30.28F
CHATTANOOGA    LGT RAIN  49  38  65 N10       30.32R
CORINTH        CLOUDY    45  41  87 CALM      30.29F
DALTON         CLOUDY    48  41  76 N5        30.29S
GADSDEN        CLOUDY    52  48  87 CALM      30.26F
GOLDEN TRNGL   NOT AVBL
HALEYVILLE       N/A     42  41  97 CALM      30.30S
JACKSON TN     CLOUDY    45  31  58 N3        30.30F
LEWISBURG      CLOUDY    44  32  63 CALM      30.30S
MEMPHIS        CLOUDY    41  36  82 E9        30.28F
MURFREESBORO   CLOUDY    46  33  60 CALM      30.31F
NASHVILLE      CLOUDY    46  31  55 E6        30.31F
OXFORD MS      CLOUDY    39  37  93 NE5       30.30S FOG
ROME           CLOUDY    53  46  77 CALM      30.28R
SAVANNAH       CLOUDY    45  39  81 CALM      30.30F
TUPELO         CLOUDY    43  41  93 E6        30.29S FOG
TUSCALOOSA     CLOUDY    50  46  86 NE6       30.27F
$$

...GULF COAST WEATHER...

CITY           SKY/WX    TMP DP  RH WIND       PRES   REMARKS
GULFPORT       FOG       63  63 100 E6        30.20F VSB 1/4
PASCAGOULA     CLOUDY    64  64 100 SE3       30.21S FOG
MOBILE         CLOUDY    63  63 100 E5        30.22F FOG
GULF SHORES    CLOUDY    64  63  98 E3        30.23R FOG
PENSACOLA      FOG       63  63 100 NE3       30.22S VSB 1/4
DESTIN         CLOUDY    65  63  93 CALM      30.23S
PANAMA CITY    MOCLDY    61  61 100 W5        30.24S
APPALACHICOLA  CLEAR     64  60  87 CALM      30.24R
$$



USA.gov is the U.S. government's official web portal to all federal, state and local government web resources and services.